Home   Weather   Southampton   Past weeks

Flag for United Kingdom Past Weather in Southampton, England, United Kingdom — Yesterday and Last 2 Weeks

Now
63 °F

Scattered showers. Scattered clouds.


Feels Like: 63 °F
Forecast: 53 / 64 °F
Wind: 20 mph from Southwest

Location: Southampton / Weather Centre

Current Time: Sep 25, 2016 at 3:03:33 PM

Latest Report: Sep 25, 2016 at 2:20 PM


Visibility: N/A

Pressure: 30.04 "Hg

Humidity: 52%

Dew Point: 45 °F

Location of SouthamptonLocation

Past Weather in Southampton — Graph

°F

Southampton Temperature Yesterday

Maximum temperature yesterday: 68 °F (at 10:50 AM)
Minimum temperature yesterday: 55 °F (at 6:50 AM)
Average temperature yesterday: 65 °F

High & Low Weather Summary for the Past Weeks

 TemperatureHumidityPressure
High79 °F (Sep 13, 4:20 PM)100% (Sep 11, 7:20 AM)30.30 "Hg (Sep 11, 7:20 AM)
Low39 °F (Sep 23, 6:20 AM)46% (Sep 16, 3:20 PM)29.71 "Hg (Sep 14, 6:20 AM)
Average61 °F76%30.01 "Hg
* Reported Sep 10 1:20 PM — Sep 25 1:50 PM, Southampton, Weather by CustomWeather, © 2016

Note: Actual official high and low records may vary slightly from our data, if they occured in-between our weather recording intervals... More about our weather records

Advertising

Southampton Weather History for the Previous 24 Hours

Scroll right to see more
 ConditionsComfort  
Time TempWeatherWind HumidityBarometerVisibility
1:50 PM
Sun, Sep 25
63 °FScattered clouds.18 mph52%30.01 "HgN/A
1:20 PM63 °FScattered clouds.12 mph52%30.01 "HgN/A
12:50 PM61 °FScattered clouds.14 mph55%30.01 "HgN/A
12:20 PM63 °FScattered clouds.14 mph56%30.01 "HgN/A
11:50 AM63 °FScattered clouds.13 mph59%29.98 "HgN/A
11:20 AM59 °FScattered clouds.13 mph63%29.98 "HgN/A
10:50 AM59 °FScattered clouds.12 mph68%29.98 "HgN/A
10:20 AM59 °FPassing clouds.13 mph72%29.95 "HgN/A
9:50 AM57 °FPassing clouds.13 mph82%29.95 "HgN/A
9:20 AM57 °FPassing clouds.9 mph82%29.92 "HgN/A
8:50 AM57 °FPassing clouds.9 mph88%29.92 "HgN/A
8:20 AM55 °FPassing clouds.6 mph94%29.89 "HgN/A
7:50 AM55 °FPassing clouds.7 mph94%29.89 "HgN/A
7:20 AM57 °FPassing clouds.8 mph88%29.86 "HgN/A
6:50 AM57 °FPassing clouds.6 mph88%29.86 "HgN/A
9:50 PM
Sat, Sep 24
64 °FPassing clouds.7 mph68%29.86 "HgN/A
9:20 PM64 °FPassing clouds.6 mph68%29.86 "HgN/A
8:50 PM64 °FPassing clouds.7 mph64%29.89 "HgN/A
8:20 PM64 °FPassing clouds.8 mph64%29.89 "HgN/A
7:50 PM64 °FPassing clouds.8 mph64%29.89 "HgN/A
7:20 PM66 °FPassing clouds.8 mph60%29.89 "HgN/A
6:50 PM66 °FPassing clouds.9 mph64%29.92 "HgN/A
6:20 PM66 °FPassing clouds.8 mph64%29.92 "HgN/A
5:50 PM66 °FPassing clouds.8 mph64%29.92 "HgN/A
5:20 PM66 °FPassing clouds.7 mph64%29.92 "HgN/A
4:50 PM68 °FPassing clouds.7 mph60%29.95 "HgN/A
4:20 PM68 °FPassing clouds.8 mph56%29.98 "HgN/A
3:50 PM68 °FPassing clouds.9 mph56%29.98 "HgN/A
3:20 PM68 °FPassing clouds.12 mph56%29.98 "HgN/A
Weather by CustomWeather, © 2016

See weather overviewHow to use our weather pages